Погода в Шибенике

Хорватия     43°44′27″N   15°53′45″E
темп.,
°C
ветер,
м/с
пор.,
м/с
влажн.,
%
обл.,
%
осадки,
мм/ч
давл.,
гПа
погр.,
м
9 мая, вс
вс923:00+12св11625 0.0 102018
02:00+11всв225857 0.0 102016
05:00+11всв22525 0.0 102018
08:00+15св22445 0.0 1020123
11:00+21зсз22325 0.0 1019738
14:00+22з42361 0.0 1019987
17:00+20зюз32420 0.0 1019435
20:00+15зюз00595 0.0 101911
10 мая, пн
пн1023:00+14в22635 0.0 102011
02:00+14в225371 0.0 101913
05:00+13в3243100 0.0 101922
08:00+17в243979 0.0 1019178
11:00+22ююв46275 0.0 1019749
14:00+23ююв56320 0.0 1018910
17:00+22ююв56370 0.0 1017698
20:00+17в33620 0.0 101739
11 мая, вт
вт1123:00+15в22640 0.0 101721
02:00+14всв22675 0.0 101620
05:00+14в336694 0.0 101530
08:00+19вюв39595 0.0 1013374
11:00+23ююв68495 0.0 1013876
14:00+24юв810470 0.0 1011959
17:00+22юв913480 0.0 1009816
20:00+19юв9175474 0.0 1007527
12 мая, ср
ср1223:00+18юв10175830 0.1 1006680
02:00+16юв8148598 1.3 1005665
05:00+12св2387100 3.9 1006149
08:00+15ююз237398 4.1 1006289
11:00+17зюз346486 1.4 1007946
14:00+18з445858 2.9 10081245
17:00+18зюз445534 0.9 10081260
20:00+13сз1479100 1.3 1009263
13 мая, чт
чт1323:00+13ссв1285100 0.4 1009153
02:00+12всв1179100 0.5 100825
05:00+13всв1175100 0.1 100726
08:00+13всв2279100 0.3 1007106
11:00+17з34545 0.0 10071367
14:00+18зюз45524 0.1 10081161
17:00+17зюз33509 0.1 1008947
20:00+14зсз126697 0.1 100955